Flag for U.S.A. Weather past 2 weeks in Bridgeport, Connecticut, U.S.A.

Now
32 °F

Passing clouds.


Feels Like: 32 °F
Forecast: 21 / 36 °F
Wind: No wind

Location: Sikorsky Memorial Airport

Current Time: Feb 1, 2015 at 8:11:37 PM

Latest Report: Feb 1, 2015 at 6:52 PM


Visibility: 10 mi

Pressure: 30.13 "Hg

Humidity: 75%

Dew point: 25 °F

Location of BridgeportLocation

Historic Weather in Bridgeport — Graph

°F

Bridgeport temperature yesterday

Maximum temperature yesterday: 24 °F (at 2:52 PM)
Minimum temperature yesterday: 10 °F (at 6:52 AM)
Average temperature yesterday: 17 °F

Past Weeks' High & Low Weather Summary

 TemperatureHumidityPressure
High44 °F (Jan 18, 3:52 PM)100% (Jan 18, 11:57 AM)30.34 "Hg (Jan 18, 11:57 AM)
Low10 °F (Jan 31, 6:52 AM)34% (Jan 31, 12:52 PM)29.22 "Hg (Jan 24, 3:52 PM)
Average29 °F66%29.96 "Hg
* Reported Jan 17 6:52 PM — Feb 1 6:52 PM, Bridgeport, Weather by CustomWeather, © 2014

Note: Actual official high and low records may vary slightly from our data, if they occured in-between our weather recording intervals... More about our weather records

Advertising

Bridgeport weather history for previous 24 hours

 ConditionsComfort  
Time TempWeatherWind HumidityBarometerVisibility
6:52 PM
Feb 1
32 °FPassing clouds.No wind75%30.13 "Hg10 mi
5:52 PM31 °FClear.No wind76%30.13 "Hg10 mi
4:52 PM32 °FSunny.3 mph75%30.13 "Hg10 mi
3:52 PM34 °FMostly cloudy.7 mph70%30.13 "Hg10 mi
2:52 PM34 °FMostly cloudy.8 mph64%30.13 "Hg10 mi
1:52 PM34 °FBroken clouds.8 mph64%30.14 "Hg10 mi
12:52 PM33 °FSunny.10 mph63%30.15 "Hg10 mi
11:52 AM33 °FOvercast.6 mph58%30.16 "Hg10 mi
10:52 AM31 °FSunny.6 mph59%30.19 "Hg10 mi
9:52 AM27 °FSunny.5 mph61%30.21 "Hg10 mi
8:52 AM23 °FOvercast.8 mph68%30.21 "Hg10 mi
7:52 AM19 °FScattered clouds.7 mph74%30.19 "Hg10 mi
6:52 AM13 °FClear.3 mph74%30.19 "Hg10 mi
5:52 AM11 °FClear.No wind73%30.19 "Hg10 mi
4:52 AM12 °FClear.No wind70%30.18 "Hg10 mi
3:52 AM13 °FClear.No wind70%30.17 "Hg10 mi
2:52 AM15 °FClear.3 mph67%30.18 "Hg10 mi
1:52 AM15 °FClear.5 mph64%30.18 "Hg10 mi
12:52 AM16 °FClear.6 mph62%30.17 "Hg10 mi
11:52 PM
Jan 31
15 °FClear.5 mph61%30.18 "Hg10 mi
10:52 PM16 °FClear.6 mph56%30.19 "Hg10 mi
9:52 PM16 °FClear.10 mph56%30.19 "Hg10 mi
8:52 PM17 °FClear.9 mph49%30.17 "Hg10 mi
Weather by CustomWeather, © 2014

See weather overviewHow to use our weather pages